Tracking 25744 objects as of 25-Jun-2022
HD Live streaming from Space Station
objects crossing your sky now

STARLINK-3260

Track STARLINK-3260 now!
10-day predictions
STARLINK-3260 is classified as:


NORAD ID: 50205
Int'l Code: 2021-125BB
Perigee: 545.2 km
Apogee: 548.7 km
Inclination: 53.2 °
Period: 95.4 minutes
Semi major axis: 6917 km
RCS: Unknown
Launch date: December 18, 2021
Source: United States (US)
Launch site: AIR FORCE WESTERN TEST RANGE (AFWTR)
aabbcc
Your satellite tracking list
Your tracking list is empty




NASA's NSSDC Master Catalog

Two Line Element Set (TLE):
1 50205U 21125BB  22175.91668981  .00038744  00000-0  24403-2 0  9999
2 50205  53.2160 166.4254 0002504  50.1107 280.0139 15.08820548 32317
Source of the keplerian elements: AFSPC